| time (UTC) | temp C | wind direction | speed KPH | gust KPH | rain 1hr cm | rain 24hr cm | rain mn cm | humidity % | barometer mb |
| 20260510142930 | 13 | 183 | 0.0 | 0.0 | 0.00 | 0.10 | 0.10 | 75 | 1022.9 |
| 20260510142427 | 13 | 204 | 0.0 | 0.0 | 0.00 | 0.10 | 0.10 | 71 | 1023.0 |
| 20260510141923 | 12 | 195 | 0.0 | 0.0 | 0.00 | 0.10 | 0.10 | 70 | 1023.0 |
| 20260510141420 | 12 | 50 | 1.6 | 3.2 | 0.00 | 0.10 | 0.10 | 71 | 1023.1 |
| 20260510140918 | 12 | 184 | 0.0 | 0.0 | 0.00 | 0.10 | 0.10 | 76 | 1023.0 |
| 20260510140414 | 12 | 193 | 0.0 | 0.0 | 0.00 | 0.10 | 0.10 | 76 | 1022.8 |
| 20260510135913 | 12 | 191 | 0.0 | 1.6 | 0.00 | 0.10 | 0.10 | 79 | 1023.0 |
| 20260510135409 | 12 | 211 | 1.6 | 1.6 | 0.00 | 0.10 | 0.10 | 80 | 1022.9 |
| 20260510134907 | 12 | 215 | 0.0 | 0.0 | 0.00 | 0.10 | 0.10 | 80 | 1022.8 |
| 20260510134403 | 12 | 189 | 0.0 | 0.0 | 0.13 | 0.10 | 0.10 | 77 | 1022.6 |
| 20260510133859 | 12 | 167 | 0.0 | 1.6 | 0.43 | 0.10 | 0.10 | 73 | 1022.7 |
| 20260510133356 | 13 | 186 | 0.0 | 0.0 | 0.48 | 0.08 | 0.08 | 71 | 1022.8 |
| 20260510132851 | 13 | 205 | 0.0 | 0.0 | 0.18 | 0.03 | 0.03 | 68 | 1022.5 |
| 20260510132349 | 13 | 185 | 0.0 | 0.0 | 0.00 | 0.00 | 0.00 | 66 | 1022.6 |
| 20260510131846 | 13 | 129 | 0.0 | 0.0 | 0.00 | 0.00 | 0.00 | 62 | 1022.6 |
| 20260510131343 | 14 | 201 | 0.0 | 0.0 | 0.00 | 0.00 | 0.00 | 61 | 1022.4 |
| 20260510130840 | 15 | 178 | 0.0 | 1.6 | 0.00 | 0.00 | 0.00 | 58 | 1022.5 |
| 20260510130337 | 15 | 297 | 1.6 | 3.2 | 0.00 | 0.00 | 0.00 | 57 | 1022.3 |
| 20260510125833 | 15 | 96 | 3.2 | 3.2 | 0.00 | 0.00 | 0.00 | 55 | 1021.8 |
| 20260510125329 | 15 | 207 | 1.6 | 1.6 | 0.00 | 0.00 | 0.00 | 57 | 1021.4 |
| 20260510124827 | 15 | 203 | 1.6 | 3.2 | 0.00 | 0.00 | 0.00 | 56 | 1021.2 |
| 20260510124324 | 15 | 24 | 1.6 | 1.6 | 0.00 | 0.00 | 0.00 | 56 | 1021.3 |
| 20260510123819 | 15 | 193 | 0.0 | 0.0 | 0.00 | 0.00 | 0.00 | 55 | 1021.3 |
| 20260510123315 | 15 | 218 | 1.6 | 3.2 | 0.00 | 0.00 | 0.00 | 58 | 1021.0 |
| 20260510122811 | 15 | 223 | 1.6 | 3.2 | 0.00 | 0.00 | 0.00 | 57 | 1020.7 |
| 20260510122307 | 15 | 46 | 1.6 | 3.2 | 0.00 | 0.00 | 0.00 | 57 | 1020.2 |
| 20260510121804 | 15 | 219 | 0.0 | 0.0 | 0.00 | 0.00 | 0.00 | 60 | 1020.0 |
| 20260510121302 | 15 | 189 | 0.0 | 0.0 | 0.00 | 0.00 | 0.00 | 60 | 1019.8 |
| 20260510120759 | 15 | 173 | 1.6 | 1.6 | 0.00 | 0.00 | 0.00 | 59 | 1019.6 |
| 20260510120255 | 15 | 64 | 1.6 | 3.2 | 0.00 | 0.00 | 0.00 | 60 | 1019.4 |
| 20260510115751 | 15 | 71 | 4.8 | 6.4 | 0.00 | 0.00 | 0.00 | 59 | 1019.1 |
| 20260510115249 | 15 | 231 | 3.2 | 4.8 | 0.00 | 0.00 | 0.00 | 60 | 1018.7 |
| 20260510114744 | 15 | 37 | 1.6 | 3.2 | 0.00 | 0.00 | 0.00 | 61 | 1018.9 |
| 20260510114242 | 15 | 154 | 3.2 | 3.2 | 0.00 | 0.00 | 0.00 | 62 | 1018.5 |
| 20260510113737 | 15 | 82 | 1.6 | 1.6 | 0.00 | 0.00 | 0.00 | 63 | 1018.3 |
| 20260510113234 | 15 | 44 | 3.2 | 3.2 | 0.00 | 0.00 | 0.00 | 63 | 1018.2 |
| 20260510112730 | 15 | 182 | 0.0 | 1.6 | 0.00 | 0.00 | 0.00 | 63 | 1018.1 |
| 20260510112227 | 15 | 80 | 1.6 | 1.6 | 0.00 | 0.00 | 0.00 | 64 | 1017.5 |
| 20260510111723 | 15 | 243 | 3.2 | 3.2 | 0.00 | 0.00 | 0.00 | 63 | 1017.7 |
| 20260510111220 | 15 | 49 | 4.8 | 4.8 | 0.00 | 0.00 | 0.00 | 63 | 1017.6 |
| 20260510110720 | 15 | 36 | 3.2 | 4.8 | 0.00 | 0.00 | 0.00 | 62 | 1017.4 |
| 20260510110218 | 15 | 37 | 3.2 | 4.8 | 0.00 | 0.00 | 0.00 | 61 | 1017.4 |
| 20260510105717 | 16 | 72 | 1.6 | 1.6 | 0.00 | 0.00 | 0.00 | 61 | 1017.4 |
| 20260510105217 | 16 | 39 | 3.2 | 4.8 | 0.00 | 0.00 | 0.00 | 61 | 1017.6 |
| 20260510104714 | 16 | 123 | 1.6 | 1.6 | 0.00 | 0.00 | 0.00 | 62 | 1017.5 |
| 20260510104211 | 16 | 143 | 1.6 | 1.6 | 0.00 | 0.00 | 0.00 | 64 | 1017.5 |
| 20260510103708 | 15 | 192 | 1.6 | 3.2 | 0.00 | 0.00 | 0.00 | 64 | 1017.1 |
| 20260510103205 | 15 | 67 | 1.6 | 1.6 | 0.00 | 0.00 | 0.00 | 64 | 1017.3 |
| 20260510102700 | 15 | 17 | 3.2 | 4.8 | 0.00 | 0.00 | 0.00 | 63 | 1017.3 |
| 20260510102156 | 15 | 47 | 3.2 | 4.8 | 0.00 | 0.00 | 0.00 | 63 | 1017.2 |
| 20260510101654 | 15 | 186 | 1.6 | 3.2 | 0.00 | 0.00 | 0.00 | 64 | 1017.1 |
| 20260510101152 | 16 | 178 | 0.0 | 0.0 | 0.00 | 0.00 | 0.00 | 63 | 1016.6 |
| 20260510100647 | 16 | 121 | 0.0 | 0.0 | 0.00 | 0.00 | 0.00 | 62 | 1016.6 |
| 20260510100145 | 16 | 28 | 3.2 | 3.2 | 0.00 | 0.00 | 0.00 | 60 | 1016.4 |
| 20260510095646 | 16 | 83 | 0.0 | 1.6 | 0.00 | 0.00 | 0.00 | 60 | 1016.6 |
| 20260510095141 | 16 | 37 | 1.6 | 3.2 | 0.00 | 0.00 | 0.00 | 60 | 1016.5 |
| 20260510094639 | 16 | 43 | 1.6 | 3.2 | 0.00 | 0.00 | 0.00 | 61 | 1016.5 |
| 20260510094136 | 16 | 24 | 0.0 | 0.0 | 0.00 | 0.00 | 0.00 | 62 | 1016.1 |
| 20260510093632 | 16 | 48 | 1.6 | 3.2 | 0.00 | 0.00 | 0.00 | 60 | 1016.2 |
| 20260510093129 | 16 | 182 | 0.0 | 1.6 | 0.00 | 0.00 | 0.00 | 60 | 1016.5 |
| 20260510092626 | 16 | 174 | 0.0 | 1.6 | 0.00 | 0.00 | 0.00 | 60 | 1016.4 |
| 20260510092121 | 16 | 215 | 1.6 | 1.6 | 0.00 | 0.00 | 0.00 | 61 | 1016.2 |
| 20260510091617 | 16 | 76 | 3.2 | 3.2 | 0.00 | 0.00 | 0.00 | 60 | 1016.0 |
| 20260510091113 | 16 | 160 | 0.0 | 0.0 | 0.00 | 0.00 | 0.00 | 59 | 1015.9 |
| 20260510090611 | 16 | 203 | 1.6 | 1.6 | 0.00 | 0.00 | 0.00 | 59 | 1015.9 |
| 20260510090106 | 16 | 72 | 1.6 | 3.2 | 0.00 | 0.00 | 0.00 | 61 | 1015.7 |
| 20260510085602 | 16 | 213 | 3.2 | 4.8 | 0.00 | 0.00 | 0.00 | 60 | 1015.8 |
| 20260510085057 | 16 | 130 | 1.6 | 1.6 | 0.00 | 0.00 | 0.00 | 60 | 1015.9 |
| 20260510084554 | 16 | 221 | 1.6 | 1.6 | 0.00 | 0.00 | 0.00 | 62 | 1015.7 |
| 20260510084051 | 16 | 22 | 0.0 | 1.6 | 0.00 | 0.00 | 0.00 | 61 | 1015.8 |
| 20260510083547 | 16 | 30 | 1.6 | 1.6 | 0.00 | 0.00 | 0.00 | 62 | 1015.8 |
| 20260510083044 | 16 | 268 | 1.6 | 3.2 | 0.00 | 0.00 | 0.00 | 61 | 1016.0 |
| 20260510082541 | 17 | 216 | 0.0 | 0.0 | 0.00 | 0.00 | 0.00 | 61 | 1016.0 |
| 20260510082036 | 17 | 210 | 0.0 | 0.0 | 0.00 | 0.00 | 0.00 | 60 | 1015.9 |
| 20260510081531 | 17 | 350 | 3.2 | 3.2 | 0.00 | 0.00 | 0.00 | 60 | 1015.6 |
| 20260510081027 | 17 | 85 | 1.6 | 1.6 | 0.00 | 0.00 | 0.00 | 60 | 1015.7 |
| 20260510080526 | 17 | 72 | 1.6 | 1.6 | 0.00 | 0.00 | 0.00 | 61 | 1015.7 |
| 20260510080023 | 16 | 307 | 1.6 | 1.6 | 0.00 | 0.00 | 0.00 | 65 | 1015.5 |
| 20260510075521 | 16 | 186 | 0.0 | 1.6 | 0.00 | 0.00 | 0.00 | 66 | 1015.2 |
| 20260510075017 | 16 | 221 | 0.0 | 0.0 | 0.00 | 0.00 | 0.00 | 65 | 1015.5 |
| 20260510074515 | 16 | 222 | 0.0 | 0.0 | 0.00 | 0.00 | 0.00 | 64 | 1015.5 |
| 20260510074010 | 16 | 202 | 0.0 | 0.0 | 0.00 | 0.00 | 0.00 | 63 | 1015.4 |
| 20260510073507 | 17 | 198 | 0.0 | 0.0 | 0.00 | 0.00 | 0.00 | 62 | 1015.2 |
| 20260510073004 | 17 | 197 | 0.0 | 0.0 | 0.00 | 0.00 | 0.00 | 62 | 1015.2 |
| 20260510072500 | 17 | 193 | 0.0 | 0.0 | 0.00 | 0.00 | 0.00 | 61 | 1015.3 |
| 20260510071955 | 17 | 201 | 0.0 | 0.0 | 0.00 | 0.00 | 0.00 | 61 | 1015.0 |
| 20260510071452 | 17 | 209 | 1.6 | 3.2 | 0.00 | 0.00 | 0.00 | 61 | 1014.9 |
| 20260510070950 | 17 | 216 | 0.0 | 0.0 | 0.00 | 0.00 | 0.00 | 60 | 1014.9 |
| 20260510070447 | 17 | 199 | 0.0 | 1.6 | 0.00 | 0.00 | 0.00 | 59 | 1015.1 |
| 20260510065943 | 18 | 161 | 0.0 | 0.0 | 0.00 | 0.00 | 0.00 | 58 | 1015.0 |
| 20260510065440 | 18 | 175 | 0.0 | 0.0 | 0.00 | 0.00 | 0.00 | 58 | 1015.1 |
| 20260510064936 | 18 | 199 | 0.0 | 0.0 | 0.00 | 0.00 | 0.00 | 58 | 1015.1 |
| 20260510064434 | 18 | 185 | 0.0 | 0.0 | 0.00 | 0.00 | 0.00 | 57 | 1014.9 |
| 20260510063930 | 18 | 178 | 0.0 | 1.6 | 0.00 | 0.00 | 0.00 | 56 | 1014.8 |
| 20260510063426 | 18 | 168 | 0.0 | 1.6 | 0.00 | 0.00 | 0.00 | 56 | 1014.6 |
| 20260510062925 | 18 | 179 | 0.0 | 0.0 | 0.00 | 0.00 | 0.00 | 57 | 1014.9 |
| 20260510062425 | 18 | 178 | 0.0 | 1.6 | 0.00 | 0.00 | 0.00 | 57 | 1014.7 |
| 20260510061920 | 18 | 184 | 0.0 | 0.0 | 0.00 | 0.00 | 0.00 | 56 | 1014.7 |
| 20260510061417 | 19 | 189 | 0.0 | 0.0 | 0.00 | 0.00 | 0.00 | 56 | 1014.4 |
| 20260510060913 | 19 | 191 | 0.0 | 1.6 | 0.00 | 0.00 | 0.00 | 57 | 1014.3 |
| 20260510060410 | 18 | 197 | 0.0 | 0.0 | 0.00 | 0.00 | 0.00 | 56 | 1014.2 |
| 20260510055906 | 18 | 198 | 0.0 | 0.0 | 0.00 | 0.00 | 0.00 | 57 | 1014.2 |
| 20260510055402 | 18 | 208 | 0.0 | 1.6 | 0.00 | 0.00 | 0.00 | 57 | 1014.2 |
| 20260510054900 | 18 | 201 | 0.0 | 1.6 | 0.00 | 0.00 | 0.00 | 59 | 1014.1 |
| 20260510054356 | 18 | 196 | 0.0 | 0.0 | 0.00 | 0.00 | 0.00 | 58 | 1013.9 |
| 20260510053851 | 18 | 210 | 0.0 | 1.6 | 0.00 | 0.00 | 0.00 | 58 | 1014.0 |
| 20260510053347 | 19 | 63 | 0.0 | 1.6 | 0.00 | 0.00 | 0.00 | 57 | 1013.6 |
| 20260510052843 | 19 | 150 | 3.2 | 3.2 | 0.00 | 0.00 | 0.00 | 56 | 1013.9 |
| 20260510052339 | 19 | 179 | 0.0 | 0.0 | 0.00 | 0.00 | 0.00 | 56 | 1013.7 |
| 20260510051835 | 19 | 205 | 0.0 | 1.6 | 0.00 | 0.00 | 0.00 | 56 | 1013.7 |
| 20260510051332 | 20 | 195 | 0.0 | 0.0 | 0.00 | 0.00 | 0.00 | 57 | 1013.9 |
| 20260510050830 | 20 | 197 | 0.0 | 0.0 | 0.00 | 0.00 | 0.00 | 55 | 1013.8 |
| 20260510050326 | 20 | 155 | 0.0 | 1.6 | 0.00 | 0.00 | 0.00 | 54 | 1013.7 |
| 20260510045823 | 20 | 181 | 0.0 | 0.0 | 0.00 | 0.00 | 0.00 | 53 | 1013.6 |
| 20260510045319 | 21 | 179 | 0.0 | 0.0 | 0.00 | 0.00 | 0.00 | 49 | 1013.3 |
| 20260510044817 | 20 | 183 | 0.0 | 1.6 | 0.00 | 0.00 | 0.00 | 47 | 1013.6 |
| 20260510044313 | 20 | 198 | 0.0 | 0.0 | 0.00 | 0.00 | 0.00 | 50 | 1013.3 |
| 20260510043810 | 20 | 169 | 0.0 | 0.0 | 0.00 | 0.00 | 0.00 | 50 | 1013.6 |
| 20260510043306 | 20 | 179 | 0.0 | 0.0 | 0.00 | 0.00 | 0.00 | 52 | 1013.8 |
| 20260510042804 | 20 | 183 | 0.0 | 0.0 | 0.00 | 0.00 | 0.00 | 51 | 1013.8 |
| 20260510042259 | 21 | 183 | 0.0 | 0.0 | 0.00 | 0.00 | 0.00 | 50 | 1013.6 |
| 20260510041755 | 21 | 183 | 0.0 | 0.0 | 0.00 | 0.00 | 0.00 | 49 | 1013.7 |
| 20260510041253 | 21 | 182 | 0.0 | 0.0 | 0.00 | 0.00 | 0.00 | 51 | 1013.8 |
| 20260510040751 | 21 | 165 | 0.0 | 0.0 | 0.00 | 0.00 | 0.00 | 50 | 1013.7 |
| 20260510040248 | 21 | 166 | 0.0 | 0.0 | 0.00 | 0.00 | 0.00 | 46 | 1013.7 |
| 20260510035743 | 21 | 167 | 0.0 | 0.0 | 0.00 | 0.00 | 0.00 | 43 | 1013.8 |
| 20260510035239 | 22 | 178 | 0.0 | 0.0 | 0.00 | 0.00 | 0.00 | 42 | 1013.6 |
| 20260510034735 | 22 | 8 | 3.2 | 4.8 | 0.00 | 0.00 | 0.00 | 41 | 1013.4 |
| 20260510034233 | 22 | 214 | 0.0 | 1.6 | 0.00 | 0.00 | 0.00 | 39 | 1013.4 |
| 20260510033729 | 22 | 214 | 0.0 | 0.0 | 0.00 | 0.00 | 0.00 | 39 | 1013.0 |
| 20260510033227 | 23 | 201 | 0.0 | 0.0 | 0.00 | 0.00 | 0.00 | 39 | 1013.1 |
| 20260510032722 | 23 | 183 | 0.0 | 0.0 | 0.00 | 0.00 | 0.00 | 37 | 1012.8 |
| 20260510032218 | 23 | 180 | 0.0 | 0.0 | 0.00 | 0.00 | 0.00 | 37 | 1012.8 |
| 20260510031713 | 23 | 156 | 1.6 | 1.6 | 0.00 | 0.00 | 0.00 | 37 | 1012.8 |
| 20260510031210 | 23 | 185 | 0.0 | 1.6 | 0.00 | 0.00 | 0.00 | 37 | 1012.5 |
| 20260510030709 | 23 | 216 | 6.4 | 6.4 | 0.00 | 0.00 | 0.00 | 36 | 1012.5 |
| 20260510030208 | 23 | 225 | 4.8 | 4.8 | 0.00 | 0.00 | 0.00 | 36 | 1012.7 |
| 20260510025705 | 23 | 231 | 3.2 | 4.8 | 0.00 | 0.00 | 0.00 | 37 | 1012.8 |
| 20260510025202 | 23 | 210 | 4.8 | 6.4 | 0.00 | 0.00 | 0.00 | 36 | 1012.7 |
| 20260510024659 | 23 | 225 | 6.4 | 6.4 | 0.00 | 0.00 | 0.00 | 36 | 1012.5 |
| 20260510024155 | 23 | 221 | 8.0 | 9.7 | 0.00 | 0.00 | 0.00 | 35 | 1012.7 |
| 20260510023651 | 23 | 178 | 1.6 | 1.6 | 0.00 | 0.00 | 0.00 | 35 | 1012.5 |
| 20260510023148 | 23 | 219 | 6.4 | 6.4 | 0.00 | 0.00 | 0.00 | 35 | 1012.7 |
| 20260510022643 | 24 | 223 | 4.8 | 6.4 | 0.00 | 0.00 | 0.00 | 36 | 1012.8 |
| 20260510022138 | 24 | 214 | 6.4 | 6.4 | 0.00 | 0.00 | 0.00 | 34 | 1012.7 |
| 20260510021634 | 24 | 195 | 6.4 | 9.7 | 0.00 | 0.00 | 0.00 | 33 | 1012.9 |
| 20260510021132 | 25 | 226 | 4.8 | 6.4 | 0.00 | 0.00 | 0.00 | 32 | 1012.6 |
| 20260510020632 | 24 | 219 | 4.8 | 4.8 | 0.00 | 0.00 | 0.00 | 34 | 1012.7 |
| 20260510020127 | 23 | 220 | 8.0 | 12.9 | 0.00 | 0.00 | 0.00 | 34 | 1012.7 |
| 20260510015624 | 23 | 209 | 3.2 | 3.2 | 0.00 | 0.00 | 0.00 | 37 | 1012.4 |
| 20260510015120 | 23 | 215 | 3.2 | 4.8 | 0.00 | 0.00 | 0.00 | 35 | 1012.2 |
| 20260510014615 | 23 | 204 | 6.4 | 6.4 | 0.00 | 0.00 | 0.00 | 36 | 1012.2 |
| 20260510014114 | 23 | 216 | 1.6 | 3.2 | 0.00 | 0.00 | 0.00 | 38 | 1012.1 |
| 20260510013608 | 23 | 208 | 1.6 | 3.2 | 0.00 | 0.00 | 0.00 | 35 | 1011.8 |
| 20260510013104 | 23 | 209 | 0.0 | 0.0 | 0.00 | 0.00 | 0.00 | 35 | 1011.5 |
| 20260510012603 | 24 | 210 | 1.6 | 1.6 | 0.00 | 0.00 | 0.00 | 35 | 1011.4 |
| 20260510012100 | 24 | 212 | 1.6 | 1.6 | 0.00 | 0.00 | 0.00 | 35 | 1011.1 |
| 20260510011559 | 24 | 192 | 4.8 | 6.4 | 0.00 | 0.00 | 0.00 | 34 | 1011.1 |
| 20260510011055 | 25 | 206 | 0.0 | 1.6 | 0.00 | 0.00 | 0.00 | 34 | 1010.6 |
| 20260510010552 | 25 | 216 | 1.6 | 3.2 | 0.00 | 0.00 | 0.00 | 34 | 1010.4 |
| 20260510010049 | 25 | 170 | 1.6 | 1.6 | 0.00 | 0.00 | 0.00 | 32 | 1010.2 |
| 20260510005550 | 25 | 220 | 1.6 | 1.6 | 0.00 | 0.00 | 0.00 | 31 | 1010.0 |
| 20260510005048 | 26 | 142 | 1.6 | 3.2 | 0.00 | 0.00 | 0.00 | 30 | 1009.9 |
| 20260510004545 | 26 | 169 | 0.0 | 1.6 | 0.00 | 0.00 | 0.00 | 29 | 1009.9 |
| 20260510004043 | 26 | 176 | 0.0 | 1.6 | 0.00 | 0.00 | 0.00 | 28 | 1009.6 |
| 20260510003540 | 26 | 168 | 1.6 | 3.2 | 0.00 | 0.00 | 0.00 | 28 | 1009.4 |
| 20260510003035 | 27 | 190 | 0.0 | 0.0 | 0.00 | 0.00 | 0.00 | 28 | 1009.3 |
| 20260510002530 | 27 | 147 | 1.6 | 3.2 | 0.00 | 0.00 | 0.00 | 27 | 1009.4 |
| 20260510002028 | 27 | 105 | 3.2 | 4.8 | 0.00 | 0.00 | 0.00 | 27 | 1009.3 |
| 20260510001525 | 27 | 110 | 4.8 | 9.7 | 0.00 | 0.00 | 0.00 | 27 | 1009.3 |
| 20260510001023 | 27 | 81 | 1.6 | 3.2 | 0.00 | 0.00 | 0.00 | 27 | 1009.0 |
| 20260510000518 | 27 | 202 | 1.6 | 1.6 | 0.00 | 0.00 | 0.00 | 25 | 1009.3 |
| 20260510000015 | 28 | 200 | 1.6 | 1.6 | 0.00 | 0.00 | 0.00 | 24 | 1009.4 |
| 20260509235512 | 28 | 238 | 6.4 | 11.3 | 0.00 | 0.00 | 0.00 | 24 | 1009.4 |
| 20260509235009 | 28 | 202 | 1.6 | 1.6 | 0.00 | 0.00 | 0.00 | 23 | 1009.4 |
| 20260509234505 | 28 | 222 | 3.2 | 4.8 | 0.00 | 0.00 | 0.00 | 24 | 1009.4 |
| 20260509234004 | 29 | 220 | 6.4 | 6.4 | 0.00 | 0.00 | 0.00 | 24 | 1009.4 |
| 20260509233500 | 29 | 157 | 1.6 | 1.6 | 0.00 | 0.00 | 0.00 | 23 | 1009.4 |
| 20260509232956 | 30 | 219 | 6.4 | 9.7 | 0.00 | 0.00 | 0.00 | 22 | 1009.5 |
| 20260509232454 | 30 | 235 | 0.0 | 1.6 | 0.00 | 0.00 | 0.00 | 23 | 1009.7 |
| 20260509231950 | 30 | 208 | 1.6 | 3.2 | 0.00 | 0.00 | 0.00 | 22 | 1009.5 |
| 20260509231447 | 30 | 212 | 6.4 | 6.4 | 0.00 | 0.00 | 0.00 | 25 | 1009.4 |
| 20260509230945 | 30 | 140 | 4.8 | 6.4 | 0.00 | 0.00 | 0.00 | 21 | 1009.2 |
| 20260509230441 | 30 | 199 | 3.2 | 4.8 | 0.00 | 0.00 | 0.00 | 21 | 1009.1 |
| 20260509225937 | 30 | 211 | 3.2 | 3.2 | 0.00 | 0.00 | 0.00 | 22 | 1009.4 |
| 20260509225434 | 30 | 226 | 0.0 | 1.6 | 0.00 | 0.00 | 0.00 | 23 | 1009.7 |
| 20260509224930 | 30 | 231 | 4.8 | 6.4 | 0.00 | 0.00 | 0.00 | 22 | 1009.3 |
| 20260509224425 | 31 | 212 | 3.2 | 4.8 | 0.00 | 0.00 | 0.00 | 22 | 1009.2 |
| 20260509223923 | 30 | 107 | 1.6 | 1.6 | 0.00 | 0.00 | 0.00 | 23 | 1009.4 |
| 20260509223419 | 30 | 211 | 0.0 | 0.0 | 0.00 | 0.00 | 0.00 | 20 | 1009.4 |
| 20260509222917 | 30 | 206 | 0.0 | 1.6 | 0.00 | 0.00 | 0.00 | 21 | 1009.4 |
| 20260509222412 | 30 | 248 | 4.8 | 4.8 | 0.00 | 0.00 | 0.00 | 22 | 1009.2 |
| 20260509221907 | 30 | 135 | 6.4 | 9.7 | 0.00 | 0.00 | 0.00 | 21 | 1009.2 |
| 20260509221405 | 30 | 130 | 1.6 | 1.6 | 0.00 | 0.00 | 0.00 | 21 | 1009.3 |
| 20260509220900 | 31 | 229 | 11.3 | 14.5 | 0.00 | 0.00 | 0.00 | 21 | 1009.2 |
| 20260509220356 | 31 | 225 | 3.2 | 3.2 | 0.00 | 0.00 | 0.00 | 22 | 1009.2 |
| 20260509215852 | 31 | 197 | 0.0 | 0.0 | 0.00 | 0.00 | 0.00 | 20 | 1009.2 |
| 20260509215349 | 30 | 247 | 3.2 | 6.4 | 0.00 | 0.00 | 0.00 | 25 | 1009.1 |
| 20260509214846 | 31 | 225 | 8.0 | 9.7 | 0.00 | 0.00 | 0.00 | 21 | 1009.1 |
| 20260509214343 | 31 | 224 | 4.8 | 4.8 | 0.00 | 0.00 | 0.00 | 22 | 1009.0 |
| 20260509213840 | 31 | 195 | 11.3 | 14.5 | 0.00 | 0.00 | 0.00 | 20 | 1009.2 |
| 20260509213335 | 30 | 224 | 8.0 | 11.3 | 0.00 | 0.00 | 0.00 | 20 | 1009.1 |
| 20260509212833 | 31 | 113 | 4.8 | 4.8 | 0.00 | 0.00 | 0.00 | 19 | 1009.3 |
| 20260509212331 | 31 | 226 | 9.7 | 14.5 | 0.00 | 0.00 | 0.00 | 21 | 1009.3 |
| 20260509211826 | 31 | 216 | 1.6 | 3.2 | 0.00 | 0.00 | 0.00 | 23 | 1009.6 |
| 20260509211322 | 32 | 229 | 6.4 | 6.4 | 0.00 | 0.00 | 0.00 | 19 | 1009.5 |
| 20260509210819 | 31 | 237 | 0.0 | 0.0 | 0.00 | 0.00 | 0.00 | 19 | 1009.5 |
| 20260509210317 | 31 | 149 | 4.8 | 9.7 | 0.00 | 0.00 | 0.00 | 18 | 1009.7 |
| 20260509205817 | 31 | 140 | 3.2 | 3.2 | 0.00 | 0.00 | 0.00 | 18 | 1009.6 |
| 20260509205312 | 31 | 239 | 1.6 | 3.2 | 0.00 | 0.00 | 0.00 | 19 | 1010.0 |
| 20260509204808 | 31 | 139 | 3.2 | 3.2 | 0.00 | 0.00 | 0.00 | 22 | 1009.6 |
| 20260509204304 | 32 | 223 | 3.2 | 4.8 | 0.00 | 0.00 | 0.00 | 22 | 1009.9 |
| 20260509203800 | 32 | 220 | 0.0 | 1.6 | 0.00 | 0.00 | 0.00 | 22 | 1010.0 |
| 20260509203258 | 31 | 211 | 0.0 | 0.0 | 0.00 | 0.00 | 0.00 | 22 | 1010.1 |
| 20260509202754 | 31 | 200 | 0.0 | 1.6 | 0.00 | 0.00 | 0.00 | 21 | 1010.1 |
| 20260509202250 | 31 | 184 | 1.6 | 1.6 | 0.00 | 0.00 | 0.00 | 19 | 1009.9 |
| 20260509201750 | 32 | 219 | 1.6 | 3.2 | 0.00 | 0.00 | 0.00 | 20 | 1010.4 |
| 20260509201247 | 32 | 221 | 1.6 | 3.2 | 0.00 | 0.00 | 0.00 | 20 | 1010.4 |
| 20260509200743 | 31 | 222 | 3.2 | 3.2 | 0.00 | 0.00 | 0.00 | 24 | 1010.4 |
| 20260509200244 | 31 | 311 | 3.2 | 4.8 | 0.00 | 0.00 | 0.00 | 20 | 1010.4 |
| 20260509195740 | 31 | 207 | 0.0 | 0.0 | 0.00 | 0.00 | 0.00 | 18 | 1010.5 |
| 20260509195235 | 30 | 231 | 4.8 | 4.8 | 0.00 | 0.00 | 0.00 | 26 | 1010.3 |
| 20260509194730 | 30 | 199 | 3.2 | 3.2 | 0.00 | 0.00 | 0.00 | 22 | 1010.8 |
| 20260509194227 | 30 | 268 | 9.7 | 12.9 | 0.00 | 0.00 | 0.00 | 22 | 1010.8 |
| 20260509193724 | 31 | 213 | 6.4 | 6.4 | 0.00 | 0.00 | 0.00 | 19 | 1011.0 |
| 20260509193223 | 30 | 258 | 4.8 | 6.4 | 0.00 | 0.00 | 0.00 | 20 | 1010.8 |
| 20260509192720 | 30 | 221 | 0.0 | 1.6 | 0.00 | 0.00 | 0.00 | 21 | 1010.9 |
| 20260509192215 | 30 | 210 | 1.6 | 1.6 | 0.00 | 0.00 | 0.00 | 21 | 1011.1 |
| 20260509191710 | 31 | 197 | 0.0 | 0.0 | 0.00 | 0.00 | 0.00 | 20 | 1011.1 |
| 20260509191207 | 31 | 230 | 1.6 | 1.6 | 0.00 | 0.00 | 0.00 | 23 | 1011.1 |
| 20260509190703 | 30 | 223 | 1.6 | 1.6 | 0.00 | 0.00 | 0.00 | 22 | 1011.1 |
| 20260509190201 | 30 | 224 | 4.8 | 6.4 | 0.00 | 0.00 | 0.00 | 23 | 1011.2 |
| 20260509185658 | 29 | 224 | 6.4 | 6.4 | 0.00 | 0.00 | 0.00 | 27 | 1011.2 |
| 20260509185154 | 29 | 215 | 9.7 | 11.3 | 0.00 | 0.00 | 0.00 | 22 | 1011.3 |
| 20260509184652 | 30 | 217 | 6.4 | 9.7 | 0.00 | 0.00 | 0.00 | 24 | 1011.3 |
| 20260509184148 | 30 | 221 | 3.2 | 4.8 | 0.00 | 0.00 | 0.00 | 22 | 1011.5 |
| 20260509183645 | 30 | 228 | 1.6 | 1.6 | 0.00 | 0.00 | 0.00 | 21 | 1011.5 |
| 20260509183140 | 30 | 207 | 3.2 | 9.7 | 0.00 | 0.00 | 0.00 | 23 | 1011.4 |
| 20260509182636 | 30 | 266 | 9.7 | 12.9 | 0.00 | 0.00 | 0.00 | 23 | 1011.5 |
| 20260509182133 | 30 | 222 | 8.0 | 9.7 | 0.00 | 0.00 | 0.00 | 22 | 1011.5 |
| 20260509181631 | 29 | 256 | 3.2 | 3.2 | 0.00 | 0.00 | 0.00 | 27 | 1011.5 |
| 20260509181129 | 29 | 235 | 12.9 | 17.7 | 0.00 | 0.00 | 0.00 | 26 | 1011.5 |
| 20260509180625 | 29 | 226 | 9.7 | 11.3 | 0.00 | 0.00 | 0.00 | 25 | 1011.3 |
| 20260509180122 | 30 | 233 | 6.4 | 6.4 | 0.00 | 0.00 | 0.00 | 24 | 1011.6 |
| 20260509175617 | 30 | 222 | 1.6 | 1.6 | 0.00 | 0.00 | 0.00 | 23 | 1011.7 |
| 20260509175115 | 30 | 243 | 3.2 | 4.8 | 0.00 | 0.00 | 0.00 | 26 | 1011.8 |
| 20260509174611 | 30 | 236 | 8.0 | 12.9 | 0.00 | 0.00 | 0.00 | 24 | 1012.0 |
| 20260509174106 | 30 | 237 | 6.4 | 6.4 | 0.00 | 0.00 | 0.00 | 27 | 1012.0 |
| 20260509173601 | 29 | 221 | 4.8 | 6.4 | 0.00 | 0.00 | 0.00 | 27 | 1012.2 |
| 20260509173057 | 28 | 216 | 1.6 | 1.6 | 0.00 | 0.00 | 0.00 | 29 | 1012.0 |
| 20260509172555 | 28 | 220 | 8.0 | 9.7 | 0.00 | 0.00 | 0.00 | 28 | 1012.1 |
| 20260509172050 | 28 | 236 | 9.7 | 12.9 | 0.00 | 0.00 | 0.00 | 27 | 1012.2 |
| 20260509171546 | 28 | 209 | 9.7 | 14.5 | 0.00 | 0.00 | 0.00 | 27 | 1012.3 |
| 20260509171043 | 27 | 201 | 1.6 | 1.6 | 0.00 | 0.00 | 0.00 | 30 | 1012.4 |
| 20260509170539 | 28 | 220 | 4.8 | 4.8 | 0.00 | 0.00 | 0.00 | 32 | 1012.5 |
| 20260509170035 | 27 | 211 | 4.8 | 6.4 | 0.00 | 0.00 | 0.00 | 30 | 1012.3 |
| 20260509165534 | 26 | 232 | 6.4 | 9.7 | 0.00 | 0.00 | 0.00 | 30 | 1012.3 |
| 20260509165029 | 26 | 231 | 6.4 | 6.4 | 0.00 | 0.00 | 0.00 | 32 | 1012.4 |
| 20260509164526 | 26 | 240 | 11.3 | 17.7 | 0.00 | 0.00 | 0.00 | 28 | 1012.4 |
| 20260509164021 | 27 | 219 | 12.9 | 16.1 | 0.00 | 0.00 | 0.00 | 27 | 1012.5 |
| 20260509163519 | 27 | 239 | 6.4 | 9.7 | 0.00 | 0.00 | 0.00 | 31 | 1012.3 |
| 20260509163014 | 27 | 239 | 12.9 | 14.5 | 0.00 | 0.00 | 0.00 | 30 | 1012.5 |
| 20260509162512 | 27 | 227 | 3.2 | 6.4 | 0.00 | 0.00 | 0.00 | 34 | 1012.6 |
| 20260509162008 | 26 | 217 | 1.6 | 3.2 | 0.00 | 0.00 | 0.00 | 37 | 1012.7 |
| 20260509161505 | 25 | 215 | 3.2 | 3.2 | 0.00 | 0.00 | 0.00 | 33 | 1012.6 |
| 20260509160959 | 26 | 219 | 3.2 | 4.8 | 0.00 | 0.00 | 0.00 | 31 | 1012.6 |
| 20260509160455 | 27 | 219 | 4.8 | 6.4 | 0.00 | 0.00 | 0.00 | 32 | 1012.4 |
| 20260509155956 | 26 | 222 | 8.0 | 11.3 | 0.00 | 0.00 | 0.00 | 35 | 1012.4 |
| 20260509155453 | 25 | 231 | 3.2 | 4.8 | 0.00 | 0.00 | 0.00 | 34 | 1012.5 |
| 20260509154949 | 25 | 221 | 3.2 | 3.2 | 0.00 | 0.00 | 0.00 | 39 | 1012.5 |
| 20260509154445 | 25 | 245 | 4.8 | 4.8 | 0.00 | 0.00 | 0.00 | 36 | 1012.7 |
| 20260509153943 | 25 | 225 | 3.2 | 4.8 | 0.00 | 0.00 | 0.00 | 38 | 1012.5 |
| 20260509153439 | 24 | 229 | 6.4 | 9.7 | 0.00 | 0.00 | 0.00 | 40 | 1012.4 |
| 20260509152937 | 23 | 237 | 9.7 | 12.9 | 0.00 | 0.00 | 0.00 | 37 | 1012.6 |
| 20260509152432 | 23 | 214 | 8.0 | 11.3 | 0.00 | 0.00 | 0.00 | 39 | 1012.4 |
| 20260509151930 | 23 | 209 | 6.4 | 9.7 | 0.00 | 0.00 | 0.00 | 42 | 1012.4 |
| 20260509151426 | 23 | 279 | 6.4 | 6.4 | 0.00 | 0.00 | 0.00 | 42 | 1012.7 |
| 20260509150924 | 22 | 221 | 3.2 | 3.2 | 0.00 | 0.00 | 0.00 | 44 | 1012.4 |
| 20260509150421 | 22 | 212 | 9.7 | 12.9 | 0.00 | 0.00 | 0.00 | 43 | 1012.3 |
| 20260509145919 | 22 | 222 | 6.4 | 9.7 | 0.00 | 0.00 | 0.00 | 49 | 1012.5 |
| 20260509145419 | 21 | 229 | 6.4 | 9.7 | 0.00 | 0.00 | 0.00 | 48 | 1012.3 |
| 20260509144915 | 21 | 222 | 6.4 | 6.4 | 0.00 | 0.00 | 0.00 | 49 | 1012.3 |
| 20260509144412 | 21 | 209 | 0.0 | 1.6 | 0.00 | 0.00 | 0.00 | 52 | 1012.4 |
| 20260509143909 | 20 | 222 | 8.0 | 9.7 | 0.00 | 0.00 | 0.00 | 60 | 1012.5 |
| 20260509143407 | 20 | 225 | 4.8 | 4.8 | 0.00 | 0.00 | 0.00 | 60 | 1012.4 |